Location: Narrabri
(30.3170°S, 149.7830°E)
Time: 07:14:44
(UTC+11:00)

ISS - Pass Details

Date: 13 January 2018
Orbit: 402 x 407 km, 51.6° (Epoch: 17 January)

Event Time Altitude Azimuth Distance (km) Brightness Sun altitude
Rises 21:01:22 0° 239° (WSW) 2,339 2.3 -11.1°
Reaches altitude 10° 21:03:43 10° 253° (WSW) 1,470 0.3 -11.5°
Maximum altitude 21:06:23 23° 308° (NW) 918 -1.8 -12.0°
Drops below altitude 10° 21:09:02 10° 2° (N) 1,453 -1.4 -12.5°
Enters shadow 21:09:08 10° 3° (N) 1,486 -1.3 -12.5°
